Vertical_Velocity
0 -1 -1 -1 -2 -4 -0 1 1 -2 1 1 -0 -1 3 -2 -1 1 -0 -0 1 1 -1 -0 0 1 -1 -2 -2 -1 1 5 2 -1 1 2 5 3 6 2 6 -1 4
-6 -13 -3 -3 -1 0 -1 -1 0 -1 -0 1 -1 1 -1 1 -3 -1 2 -0 -1 2 0 1 -1 2 -1 0 2 -0 1 4 2 5 -1 1 5 6 9 1 5 6 -0
-1 1 3 4 1 4 2 -0 -1 -2 1 -0 -0 2 1 2 3 2 3 3 0 -2 -2 -1 0 -1 0 -0 2 -1 -1 2 4 2 2 -1 5 0 3 3 3 4 2
0 1 6 4 6 4 5 4 3 0 -3 -4 0 3 -2 2 1 1 -2 1 0 -1 1 2 1 1 1 2 -0 -1 1 -0 3 2 5 3 4 2 0 4 4 4 4
1 0 4 6 9 6 2 3 -3 -4 3 -2 0 -2 1 -1 -2 0 -1 1 -0 2 1 0 -2 1 1 0 -0 0 1 -1 -0 5 1 5 2 1 7 2 7 3 -2
3 1 -0 3 6 5 2 3 0 -0 1 -1 -1 0 -1 -1 -1 -0 1 1 -1 0 2 0 1 -2 -1 2 -0 -1 -0 -3 1 2 3 5 4 2 -2 -0 -0 -1 6
2 0 -0 1 3 1 -0 3 1 -0 0 1 1 1 0 -1 0 -0 -0 -1 1 2 1 -1 -1 2 -1 -0 -1 1 0 1 3 -1 2 1 6 2 1 4 3 4 -1
3 1 2 1 1 1 2 3 1 1 1 2 -0 0 -1 1 -0 -0 0 1 1 0 -3 1 2 2 -1 -1 -1 0 1 0 -2 1 5 -0 3 5 4 -0 -1 1 0
3 1 1 0 1 0 2 -0 0 2 -0 -0 -1 0 -1 -2 1 -1 -2 2 1 3 -2 -1 0 2 3 1 -1 0 2 -0 -3 -0 -0 3 2 2 4 0 2 -3 4
1 2 2 -1 -1 1 0 -0 -0 1 1 -0 -1 -4 -1 -2 -2 -1 1 -0 -2 -1 2 -1 1 3 0 2 -0 2 -2 1 3 1 1 1 2 2 2 6 -1 -0 2
1 3 0 1 -0 2 1 3 1 -0 1 1 2 2 -3 -4 -1 4 3 -1 -2 0 2 0 -3 1 0 -1 -0 1 -3 1 0 2 1 1 -1 6 3 -0 4 -1 2
2 2 2 2 1 1 3 3 3 2 0 -1 1 0 -1 -2 4 3 2 3 -3 -1 -1 5 -1 3 -1 -3 -4 3 2 4 6 4 1 5 -3 -1 5 5 1 -0 -0
1 -1 1 -0 0 0 1 1 3 2 3 -1 -5 -3 2 -2 0 -3 -5 -1 2 2 -0 -1 -2 -0 -1 -3 -3 4 1 -3 6 3 1 1 -3 3 -0 1 0 2 -2
2 0 -0 1 -0 0 0 1 1 1 1 3 -2 -1 1 3 -3 1 -1 -0 -0 2 3 1 0 0 3 -0 -2 2 2 1 5 1 1 -3 2 4 5 -1 2 1 2
2 2 1 0 0 1 2 1 2 2 1 4 1 -3 0 -0 -3 -0 1 -3 -1 2 -2 -2 -2 -1 0 -0 -0 2 4 2 4 9 0 5 4 1 2 1 3 -0 1
4 3 3 2 2 2 2 4 1 4 -1 3 2 -1 5 -2 2 -1 -0 -2 -2 -3 -4 -5 -3 -3 -2 2 -0 -1 2 1 3 5 8 6 -5 -1 -2 -5 -3 0 -6
6 -2 1 3 3 4 2 5 8 -1 0 2 2 -1 3 1 -1 1 -0 -1 1 -2 -3 -2 0 -3 -7 -1 -2 -4 8 10 8 3 1 7 3 10 3 8 1 3 9
1 -3 -2 -1 2 3 3 3 3 3 1 -0 -2 -0 4 -3 -2 4 3 -1 -1 -4 1 -1 -0 -1 -4 -11 -3 -4 -4 -5 0 3 0 0 0 2 5 -0 7 3 -8
-1 2 8 1 2 4 3 2 2 1 2 2 1 5 3 0 -1 1 1 2 -4 -1 2 -2 -3 -0 3 -9 2 7 1 -1 3 -2 3 7 8 9 -2 -3 7 13 11
3 6 4 2 2 5 6 2 2 0 3 2 1 2 2 1 1 2 3 -5 3 2 1 -2 -1 -1 1 -4 0 -0 3 8 6 3 6 4 1 4 2 1 0 5 6
6 10 8 9 7 1 5 3 1 1 1 1 2 1 1 2 -2 -1 3 -1 1 -1 5 -2 -2 -0 -0 -0 -1 -2 -2 -1 -2 6 3 1 6 2 3 5 2 -2 0
5 6 4 2 -0 2 5 7 2 2 2 1 2 1 1 3 -2 10 2 3 1 0 -1 -0 -1 -1 -3 -2 -0 -2 -3 1 -1 -0 -2 -1 -0 1 0 -1 -1 -0 2
3 6 4 9 3 0 -0 5 2 4 1 1 0 -1 1 0 1 3 1 0 -0 2 2 -1 2 -0 -0 -2 -6 -3 -2 -2 1 -1 2 2 1 1 3 1 3 4 -2
4 5 1 7 6 4 4 5 9 3 1 2 2 -0 -0 -1 -0 1 0 0 2 1 8 6 2 -0 0 0 0 -5 -2 -4 -4 -2 1 -1 0 -1 -0 3 2 -5 2
3 2 -0 4 3 3 1 -1 5 8 4 2 3 3 -0 -2 -2 3 1 3 6 6 5 3 3 3 7 1 2 0 -4 -4 -3 -0 -1 -3 -0 -2 0 1 1 -2 -2
-5 -5 -1 1 -4 4 4 5 2 7 4 4 3 7 4 2 1 3 4 2 2 1 4 5 7 10 2 2 3 1 1 -1 -2 1 -1 -2 -6 -2 -4 -1 -1 -2 0
Height
5727 5732 5738 5743 5746 5750 5756 5761 5765 5768 5772 5778 5782 5786 5789 5791 5794 5797 5798 5801 5803 5806 5809 5810 5812 5816 5819 5820 5823 5827 5832 5836 5837 5838 5841 5844 5847 5850 5853 5855 5855 5856 5859
5713 5719 5726 5731 5735 5739 5745 5749 5754 5758 5762 5767 5772 5776 5779 5782 5785 5788 5791 5793 5796 5797 5800 5804 5805 5807 5810 5812 5815 5819 5823 5827 5829 5831 5832 5836 5841 5844 5847 5849 5851 5851 5853
5702 5708 5715 5720 5724 5730 5736 5740 5744 5747 5752 5757 5762 5767 5771 5774 5777 5780 5783 5785 5786 5788 5791 5794 5796 5798 5800 5802 5806 5810 5813 5817 5819 5822 5826 5828 5832 5836 5839 5842 5844 5845 5846
5689 5696 5704 5710 5716 5721 5726 5731 5734 5738 5742 5746 5751 5756 5760 5764 5768 5770 5771 5775 5777 5779 5782 5784 5787 5788 5791 5794 5797 5800 5804 5807 5810 5813 5818 5820 5823 5827 5831 5834 5836 5838 5840
5676 5683 5691 5699 5706 5711 5715 5720 5723 5726 5731 5735 5741 5745 5749 5753 5757 5761 5764 5766 5768 5770 5772 5774 5777 5779 5782 5784 5787 5791 5795 5797 5800 5805 5808 5812 5815 5818 5823 5826 5828 5830 5832
5664 5672 5677 5684 5692 5699 5703 5708 5713 5716 5720 5724 5730 5735 5739 5742 5746 5750 5754 5757 5759 5761 5764 5765 5769 5770 5772 5776 5778 5780 5784 5787 5791 5795 5800 5804 5807 5809 5813 5816 5818 5821 5824
5650 5657 5664 5671 5677 5684 5690 5696 5701 5705 5710 5715 5719 5724 5727 5731 5735 5739 5744 5747 5750 5753 5756 5758 5759 5763 5764 5766 5767 5771 5774 5778 5782 5785 5790 5794 5798 5800 5803 5806 5809 5812 5813
5637 5643 5649 5656 5663 5670 5678 5683 5689 5695 5699 5704 5708 5711 5715 5720 5724 5728 5733 5737 5741 5743 5744 5747 5749 5752 5753 5755 5757 5760 5764 5768 5772 5776 5781 5785 5788 5792 5795 5797 5800 5803 5804
5624 5630 5637 5643 5649 5656 5664 5671 5677 5683 5688 5692 5697 5702 5705 5709 5713 5717 5721 5725 5729 5733 5734 5736 5738 5741 5744 5746 5748 5750 5752 5756 5760 5766 5770 5774 5778 5782 5785 5787 5790 5793 5795
5612 5618 5624 5630 5637 5644 5650 5657 5664 5670 5676 5681 5686 5691 5696 5699 5702 5706 5709 5713 5716 5719 5723 5726 5728 5729 5732 5734 5736 5740 5741 5744 5749 5754 5758 5763 5768 5771 5775 5777 5780 5782 5785
5600 5606 5613 5618 5624 5631 5638 5645 5651 5657 5663 5668 5673 5678 5683 5687 5692 5697 5700 5703 5705 5708 5711 5713 5715 5718 5722 5723 5724 5727 5729 5732 5736 5741 5747 5752 5756 5760 5764 5767 5768 5772 5773
5587 5594 5601 5607 5612 5618 5625 5631 5638 5644 5650 5655 5660 5664 5670 5676 5682 5686 5688 5692 5695 5698 5700 5703 5704 5707 5709 5711 5711 5714 5718 5721 5724 5727 5734 5740 5744 5748 5752 5756 5758 5759 5760
5574 5582 5589 5596 5601 5607 5612 5618 5625 5632 5638 5643 5648 5653 5658 5663 5669 5673 5676 5680 5684 5687 5689 5691 5692 5694 5697 5699 5700 5702 5705 5709 5711 5714 5719 5725 5730 5735 5738 5742 5745 5746 5747
5561 5568 5576 5583 5590 5596 5602 5608 5613 5619 5626 5632 5637 5642 5646 5652 5656 5661 5664 5668 5671 5675 5678 5680 5682 5683 5686 5688 5690 5691 5693 5696 5699 5701 5706 5711 5715 5720 5723 5727 5731 5732 5734
5550 5557 5563 5570 5577 5584 5591 5597 5603 5609 5614 5621 5625 5630 5635 5640 5645 5648 5652 5655 5659 5662 5665 5668 5669 5672 5675 5677 5679 5681 5682 5684 5688 5691 5693 5697 5702 5705 5708 5711 5714 5716 5718
5540 5546 5553 5559 5566 5574 5580 5587 5592 5599 5603 5609 5615 5619 5624 5628 5634 5637 5641 5644 5647 5650 5653 5656 5660 5662 5663 5665 5667 5669 5672 5673 5676 5679 5682 5685 5688 5690 5696 5695 5699 5702 5705
5528 5536 5543 5549 5556 5563 5570 5576 5584 5586 5592 5598 5604 5608 5614 5618 5623 5628 5631 5634 5637 5640 5643 5646 5650 5652 5654 5655 5657 5659 5661 5664 5665 5667 5670 5674 5676 5680 5684 5685 5688 5688 5694
5516 5524 5532 5539 5545 5552 5558 5565 5571 5577 5582 5588 5592 5598 5603 5607 5612 5617 5622 5624 5628 5631 5634 5637 5639 5641 5643 5646 5648 5649 5651 5653 5655 5657 5661 5664 5668 5669 5672 5673 5676 5680 5679
5506 5513 5521 5528 5535 5542 5547 5554 5559 5565 5571 5577 5583 5589 5594 5597 5602 5608 5612 5615 5618 5621 5624 5627 5629 5632 5634 5638 5641 5642 5641 5643 5646 5650 5652 5655 5658 5659 5662 5663 5666 5667 5668
5494 5502 5509 5516 5523 5530 5537 5543 5549 5554 5559 5565 5571 5578 5584 5589 5594 5598 5602 5606 5608 5611 5615 5618 5621 5623 5626 5630 5633 5634 5635 5636 5637 5641 5641 5644 5645 5645 5648 5650 5651 5653 5654
5481 5487 5495 5503 5511 5519 5526 5532 5538 5543 5548 5553 5559 5565 5572 5579 5584 5586 5591 5597 5600 5602 5606 5610 5611 5614 5617 5619 5620 5623 5625 5626 5628 5630 5632 5634 5635 5635 5637 5638 5639 5639 5640
5468 5474 5483 5490 5499 5507 5514 5520 5527 5532 5537 5542 5548 5553 5560 5566 5573 5577 5581 5586 5590 5595 5597 5601 5603 5604 5607 5610 5611 5613 5615 5617 5620 5622 5624 5625 5625 5626 5628 5629 5631 5632 5633
5458 5464 5472 5477 5485 5494 5501 5508 5515 5521 5526 5531 5536 5542 5547 5553 5559 5564 5569 5574 5578 5583 5586 5589 5593 5595 5598 5600 5604 5605 5608 5610 5612 5613 5615 5616 5617 5618 5619 5621 5622 5623 5623
5450 5454 5459 5465 5472 5481 5487 5497 5504 5509 5515 5520 5525 5530 5536 5541 5547 5552 5557 5562 5567 5572 5576 5580 5582 5585 5588 5590 5593 5596 5599 5602 5605 5606 5607 5609 5609 5610 5611 5612 5613 5612 5611
5440 5445 5450 5454 5460 5467 5475 5483 5490 5497 5501 5507 5513 5518 5524 5530 5535 5540 5545 5550 5555 5560 5565 5568 5572 5576 5578 5581 5582 5585 5588 5591 5594 5597 5598 5599 5600 5601 5602 5602 5602 5603 5603
5428 5435 5440 5445 5450 5455 5462 5468 5474 5481 5488 5492 5499 5505 5511 5517 5522 5527 5532 5537 5542 5546 5551 5555 5559 5563 5566 5568 5570 5573 5575 5578 5581 5584 5586 5588 5589 5590 5591 5592 5592 5593 5593